Location: Bessat
(45.8735°N, 1.9924°E)
Time: 21:54:24
(UTC+00:00)

Cosmos 1959 Rocket - Pass Details

Date: 11 May 2021
Orbit: 946 x 998 km, 82.9° (Epoch: 23 June)

Event Time Altitude Azimuth Distance (km) Brightness Sun altitude
Rises 23:01:21 0° 350° (N) 3,688 8.9 -25.1°
Reaches altitude 10° 23:03:54 10° 349° (NNW) 2,729 7.9 -25.2°
Maximum altitude 23:10:07 75° 265° (W) 998 4.4 -25.4°
Enters shadow 23:11:21 58° 200° (SSW) 1,115 4.4 -25.4°
